sat.trackr.live / text

‹ back to catalog

SITRO-AIS 24

NORAD 61741 · 2024-199G

PAYLOAD ACTIVE UNKNOWN

§ Identity

Operator
Country
CIS
Launch date
2024-11-04
Launch site
VOSTO
Launch vehicle
Mass (kg)
RCS (m²)

External: N2YO · Heavens-Above · Gunter

§ Orbital elements

Epoch: 2026-09-22T22:06:24.556320Z

Period
96.22 min
Inclination
97.3212°
Eccentricity
0.0013697
Mean motion
14.96525833 rev/d
Perigee alt
568.1 km
Apogee alt
587.2 km
Semi-major
6,955.8 km
B*
1.0469e-4
RAAN
97.7211°
Arg perigee
92.6397°
Mean anomaly
267.6394°
Rev number
14,650

§ Raw data

SITRO-AIS 241 61741U 24199G   26265.92111755  .00001139  00000+0  10469-3 0  99922 61741  97.3212  97.7211 0013697  92.6397 267.6394 14.96525833146503

JSON: /api/v1/satellites/61741 · /tle

For live sub-satellite position, see the globe view (requires WebGL).

§ Visibility from observer

Set your observer location to see the next 7 days of passes ≥ 10°. The values pass through the URL so the page stays shareable.

No JS? Fill the form by hand. The geolocation button needs JavaScript.

§ Radio — SatNOGS DB

ModeDescriptionDownlinkUplink
GMSK USP Mode U - GMSK2k4 - USP 401.235 MHz

1 transmitter · refreshed weekly from db.satnogs.org